Flag for China Weather past 2 weeks in Dalian, Liaoning, China

Now
72 °F

Sunny.


Feels Like: 76 °F
Forecast: 66 / 77 °F
Wind: 17 mph from West

Location: Dalian Airport

Current Time: Sep 17, 2014 at 3:50:44 PM

Latest Report: Sep 17, 2014 at 3:00 PM


Visibility: 10 mi

Pressure: 30.07 "Hg

Humidity: 57%

Dew point: 55 °F

Location of DalianLocation

Historic Weather in Dalian — Graph

°F

Dalian temperature yesterday

Maximum temperature yesterday: 77 °F (at 11:30 AM)
Minimum temperature yesterday: 55 °F (at 5:00 AM)
Average temperature yesterday: 67 °F

Past Weeks' High & Low Weather Summary

 TemperatureHumidityPressure
High86 °F (Sep 4, 12:00 PM)94% (Sep 7, 4:00 AM)30.12 "Hg (Sep 7, 4:00 AM)
Low55 °F (Sep 16, 5:00 AM)17% (Sep 10, 2:00 PM)29.65 "Hg (Sep 4, 1:30 PM)
Average73 °F59%29.90 "Hg
* Reported Sep 2 2:00 PM — Sep 17 2:30 PM, Dalian, Weather by CustomWeather, © 2014

Note: Actual official high and low records may vary slightly from our data, if they occured in-between our weather recording intervals... More about our weather records

Advertising

Dalian weather history for previous 24 hours

 ConditionsComfort  
Time TempWeatherWind HumidityBarometerVisibility
2:30 PM
Sep 17
72 °FSunny.17 mph57%30.09 "Hg10 mi
2:00 PM72 °FSunny.17 mph53%30.09 "Hg10 mi
1:30 PM72 °FSunny.20 mph57%30.09 "Hg10 mi
1:00 PM72 °FSunny.17 mph57%30.09 "Hg10 mi
12:30 PM72 °FSunny.17 mph57%30.09 "Hg10 mi
12:00 PM72 °FPassing clouds.15 mph53%30.09 "HgN/A
11:30 AM72 °FClear.20 mph57%30.09 "Hg5 mi
11:00 AM72 °FClear.20 mph53%30.09 "Hg4 mi
10:30 AM70 °FClear.17 mph57%30.12 "Hg4 mi
10:00 AM70 °FClear.15 mph60%30.12 "Hg4 mi
9:30 AM70 °FClear.17 mph60%30.12 "Hg4 mi
9:00 AM70 °FFog.15 mph60%30.12 "Hg3 mi
8:30 AM70 °FFog.17 mph64%30.09 "Hg3 mi
8:00 AM70 °FFog.17 mph64%30.09 "Hg3 mi
7:30 AM70 °FFog.15 mph64%30.09 "Hg2 mi
7:00 AM70 °FFog.13 mph69%30.09 "Hg2 mi
6:30 AM70 °FFog.13 mph69%30.07 "Hg2 mi
6:00 AM68 °FFog.10 mph78%30.07 "Hg3 mi
5:30 AM68 °FFog.10 mph78%30.07 "Hg3 mi
5:00 AM68 °FPassing clouds.10 mph78%30.07 "Hg4 mi
4:30 AM70 °FPassing clouds.8 mph73%30.07 "HgN/A
4:00 AM70 °FPassing clouds.6 mph73%30.07 "HgN/A
3:30 AM70 °FPassing clouds.10 mph73%30.07 "HgN/A
3:00 AM68 °FPartly cloudy.3 mph69%30.07 "HgN/A
2:30 AM68 °FPartly cloudy.6 mph69%30.07 "HgN/A
2:00 AM68 °FPartly cloudy.6 mph64%30.07 "HgN/A
1:30 AM68 °FPartly cloudy.3 mph60%30.07 "HgN/A
1:00 AM68 °FPartly cloudy.1 mph56%30.07 "HgN/A
12:30 AM68 °FPartly cloudy.3 mph56%30.07 "HgN/A
12:00 AM68 °FPartly cloudy.3 mph56%30.07 "HgN/A
11:30 PM
Sep 16
68 °FPartly cloudy.3 mph56%30.07 "HgN/A
11:00 PM68 °FPartly cloudy.1 mph53%30.07 "HgN/A
10:30 PM68 °FPartly cloudy.3 mph53%30.07 "HgN/A
10:00 PM70 °FPartly cloudy.1 mph46%30.09 "HgN/A
9:30 PM68 °FPartly cloudy.1 mph49%30.09 "HgN/A
9:00 PM70 °FClear.1 mph46%30.09 "Hg10 mi
8:30 PM70 °FClear.1 mph50%30.09 "Hg10 mi
8:00 PM70 °FClear.3 mph50%30.09 "Hg10 mi
7:30 PM70 °FPassing clouds.3 mph50%30.07 "HgN/A
7:00 PM70 °FClear.3 mph46%30.07 "Hg10 mi
6:30 PM70 °FClear.3 mph46%30.07 "Hg10 mi
6:00 PM72 °FPassing clouds.3 mph44%30.07 "HgN/A
5:30 PM72 °FPassing clouds.3 mph41%30.07 "HgN/A
5:00 PM72 °FPassing clouds.3 mph41%30.07 "HgN/A
4:30 PM73 °FPassing clouds.3 mph36%30.07 "HgN/A
4:00 PM73 °FSunny.6 mph36%30.07 "Hg10 mi
3:30 PM73 °FPassing clouds.6 mph33%30.07 "HgN/A
3:00 PM73 °FPassing clouds.6 mph33%30.07 "HgN/A
Weather by CustomWeather, © 2014

See weather overviewHow to use our weather pages